Starlink 30864

operational
NORAD ID: 58243 Int'l Des: 2023-171 Owner: SPXS Country: US Constellation: starlink
LEOCIRCULAR

About Starlink 30864

Description loading...

Live Position

Loading 3D Globe...

Upcoming Passes

Altitude History

Altitude vs Time

uPlot chart will show altitude changes over time

Two-Line Element Set

1 58243U 23171P 25258.41259980 .00000367 00000-0 42264-4 0 9994
2 58243 43.0006 158.0304 0001076 271.5795 88.4924 15.02537452103269
Epoch: Sep 15, 2025 • Age: 16 hours

Current Status

Altitude 560.0 km
Velocity 7.59 km/s
Sub-Earth Point 28.92°N, 164.35°E
Launch Date Nov 8, 2023
Age 1.8 years
Type internet

Technical Details

Classification Payload
Mass 730.00 kg
Dry Mass 700.00 kg
Total Mass 730.00 kg
Length 0.30 m
Diameter 4.10 m
Span 29.00 m
Shape Box + pan
Manufacturer SPXS
Bus Type Starlink V2M
Phase Status In Orbit
Owner/State SPXS/US

Large Constellations

Loading constellations...